Regional Weather Roundup
Issued by NWS

Home | Current Version | Previous Version | Graphics & Text | Print | Product List | Glossary On
Versions: 1 2 3 4 5 6 7 8 9 10 11 12 13 14 15 16 17 18 19 20 21 22 23 24 25 26 27 28 29 30 31 32 33 34 35 36 37 38 39 40 41 42 43 44 45 46 47 48 49 50
000
ASUS45 KTFX 230910
RWRMT
MONTANA REGIONAL WEATHER ROUNDUP
NATIONAL WEATHER SERVICE GREAT FALLS MT
200 AM MST THU FEB 23 2017

NOTE: "FAIR" INDICATES FEW OR NO CLOUDS BELOW 12000 FEET WITH NO
SIGNIFICANT WEATHER AND/OR OBSTRUCTIONS TO VISIBILITY.

MTZ001>007-043-231000-
WEST OF THE DIVIDE

CITY           SKY/WX    TMP DP  RH WIND       PRES   REMARKS
KALISPELL      PTCLDY    24  18  77 N5        29.94S
MISSOULA       CLOUDY    29  28  96 SW5       29.93S
BUTTE          CLOUDY    23  20  88 CALM      29.79F
MULLAN PASS    FOG       20  17  88 NW3       29.84R VSB 3/4
ANACONDA         N/A     27  19  74 NW14      29.82F WCI  15
DEER LODGE       N/A     28  19  69 N9        29.87F WCI  20
EUREKA           N/A     21  19  93 CALM      30.00S
HAMILTON         N/A     30  25  80 NW7       29.88F WCI  23
LIBBY            N/A     19  19 100 CALM      29.99R
RONAN            N/A     23  19  85 CALM      29.96S
$$

MTZ008-052>055-231000-
SOUTHWEST MONTANA

CITY           SKY/WX    TMP DP  RH WIND       PRES   REMARKS
BOZEMAN        CLOUDY    28  24  85 SE7       29.82S WCI  21
DILLON         CLOUDY    27  20  75 NE15      29.74F WCI  15
W YELLOWSTONE  CLOUDY     7   5  92 SW3       29.71F
ENNIS          MOCLDY    25  23  93 N12G18    29.78F WCI  14
THREE FORKS      N/A     29  20  69 CALM      29.83F
TWIN BRIDGES     N/A     28  19  69 N13       29.78F WCI  17
$$

MTZ009-010-012-014-046-048-049-054-231000-
EAST SLOPES AND CENTRAL MONTANA

CITY           SKY/WX    TMP DP  RH WIND       PRES   REMARKS
CUT BANK       CLOUDY    23  20  88 NE14      29.96S WCI  11
GREAT FALLS    FLURRIES  29  26  89 N7        29.93S WCI  22
MALMSTROM AFB  SNOWSHWR  28  28 100 NE8       29.94S WCI  20
HELENA         CLOUDY    31  23  72 NW8       29.89S WCI  23
AUGUSTA        FLURRIES  26  26  97 NE5       29.91S
BOWMANS CRNR   FLURRIES  25  24  96 NE9       29.89F WCI  15
CHOTEAU          N/A     27  27 100 NE8       29.96S WCI  18
CONRAD           N/A     26  26 100 N5        29.98S
POWER          LGT SNOW  26  25  99 N10       29.93S VSB 5/8 WCI  15
RAYNESFORD     MOCLDY    27  26  95 NW3       29.92R
ULM            MOCLDY    29  28  94 MISG      29.93S
$$

MTZ011-013-016-021-045-047-050-051-231000-
NORTH CENTRAL MONTANA

CITY           SKY/WX    TMP DP  RH WIND       PRES   REMARKS
HAVRE          FLURRIES  28  27  96 NE9       30.00S WCI  19
LEWISTOWN      LGT SNOW  26  25  96 CALM      29.88F FOG
N BAR RANCH    CLOUDY    25  23  93 E5        29.90F
CHINOOK          N/A     30  30 100 CALM      30.01S
DENTON         CLOUDY    26  25  96 E12       29.88F WCI  15
FORT BENTON      N/A     30  27  86 CALM      29.98S
GEYSER         MOCLDY    27  25  91 N7        29.90S WCI  20
GRASS RANGE    FLURRIES  26  26  99 E3        29.88S
JUDITH GAP     FLURRIES  25  23  93 N13       29.86F WCI  14
ROY            MOCLDY    26  25  96 MISG      29.91S
STANFORD       CLOUDY    26  25  99 N8        29.89S WCI  17
WINIFRED       FLURRIES  26  25  98 NE12      29.90S WCI  15
$$

MTZ017>020-022>027-061-062-231000-
NORTHEAST MONTANA

CITY           SKY/WX    TMP DP  RH WIND       PRES   REMARKS
GLASGOW        CLOUDY    25  22  88 W6        29.99S WCI  18
JORDAN           N/A     20  17  88 CALM      29.98R
SIDNEY         CLOUDY    25  24  96 SW6       30.01R WCI  18
WOLF POINT     CLOUDY    26  23  88 S3        30.00S
PLENTYWOOD       N/A     30  27  86 W3        29.98F
POPLAR           N/A     27  25  93 SW5       30.01S
SCOBEY           N/A     29  20  69 CALM      29.96F
$$

MTZ028>42-056>058-231000-
SOUTHCENTRAL AND SOUTHEAST MONTANA

CITY           SKY/WX    TMP DP  RH WIND       PRES   REMARKS
BAKER          CLOUDY    26  23  88 E9        29.95F WCI  17
BILLINGS       FLURRIES  30  28  92 NE8       29.89R WCI  22
LIVINGSTON     LGT SNOW  28  25  88 E15       29.81F FOG     WCI  16
MILES CITY     CLOUDY    29  23  78 E5        29.96F
BIG TIMBER     CLOUDY    28  27  93 E10       29.87S WCI  19
EKALAKA          N/A     25  22  88 NE6       29.88F WCI  18
FORSYTH          N/A     28  27  93 E7        29.95F WCI  21
HARLOWTON      FLURRIES  27  26  94 NE7       29.87F WCI  20
LAUREL           N/A     29  26  88 CALM      29.87F
$$

REGIONAL REPORTS...DAKOTAS

CITY           SKY/WX    TMP DP  RH WIND       PRES   REMARKS
WILLISTON      CLOUDY    29  26  89 CALM      29.99F
MINOT          CLOUDY    31  27  85 NW6       29.96F WCI  25
DICKINSON      CLOUDY    23  20  88 CALM      29.96R
BEACH            N/A    N/A N/A N/A MISG        N/A
CROSBY         CLOUDY    32  32 100 NW10      30.00S WCI  24
TIOGA          CLOUDY    27  27 100 W6        29.98F WCI  20
WATFORD CITY     N/A     23  23 100 S6        29.99S FOG     WCI  16
BISMARCK       CLOUDY    27  25  92 NW3       30.00S
GRAND FORKS    MOCLDY    28  21  75 N7        29.98S WCI  21
FARGO          CLEAR     28  25  88 N6        29.98R WCI  22
BUFFALO SD       N/A     29  26  89 E10       29.86F WCI  20
RAPID CITY     CLOUDY    30  28  92 NE7       29.90R FOG     WCI  23
$$

REGIONAL REPORTS...WYOMING/IDAHO/WASHINGTON

CITY           SKY/WX    TMP DP  RH WIND       PRES   REMARKS
GILLETTE       CLOUDY    30  26  85 NE8       29.83S WCI  22
SHERIDAN       CLOUDY    30  27  88 VRB5      29.85S
BUFFALO WY     CLOUDY    29  25  85 N8        29.82R WCI  21
CODY           CLOUDY    27  24  89 NE10      29.79R WCI  17
YELLOWSTONE LA   N/A      1  -1  91 CALM      29.68F
IDAHO FALLS    CLOUDY    30  23  75 N8        29.66S WCI  22
SALMON         CLOUDY    30  27  86 CALM      29.76F
BOISE          FLURRIES  32  27  81 NW14      29.82S WCI  22
SPOKANE        PTCLDY    23  21  92 CALM      30.01S
$$

REGIONAL REPORTS...ALBERTA

CITY           SKY/WX    TMP DP  RH WIND       PRES   REMARKS
EDMONTON       CLOUDY    21  16  79 W3        30.08S
CALGARY        MOCLDY    21  19  93 NE2       30.02S FOG
LETHBRIDGE     FLURRIES  25  23  93 NE5       30.04S
MEDICINE HAT   PTCLDY    19  19 100 NE5       30.08R
CARDSTON         N/A     21  21 100 NE3         N/A
MILK RIVER       N/A     23  21  93 NE12        N/A  WCI  12
ONEFOUR          N/A     23  21  93 NE7         N/A  WCI  15
$$

REGIONAL REPORTS...SASKATCHEWAN

CITY           SKY/WX    TMP DP  RH WIND       PRES   REMARKS
SWIFT CURRENT  FLURRIES  21  19  93 N6        30.02S WCI  14
REGINA         CLOUDY    23  18  80 N13G18    30.06R WCI  11
SASKATOON      CLOUDY    23  18  80 W8        30.08S WCI  14
VAL MARIE        N/A     28  27  93 N15G21      N/A  WCI  17
ROCKGLEN         N/A     27  27 100 N8          N/A  WCI  18
$$



USA.gov is the U.S. government's official web portal to all federal, state and local government web resources and services.